Regional Weather Roundup
Issued by NWS Newport/Morehead, NC

Current Version | Previous Version | Graphics & Text | Print | Product List | Glossary On
Versions: 1 2 3 4 5 6 7 8 9 10 11 12 13 14 15 16 17 18 19 20 21 22 23 24 25 26 27 28 29 30 31 32 33 34 35 36 37 38 39 40 41 42 43 44 45 46 47 48 49 50
000 ASUS42 KMHX 241810 RWRMHX WEATHER ROUNDUP FOR EASTERN NORTH CAROLINA NATIONAL WEATHER SERVICE NEWPORT/MOREHEAD CITY NC 100 PM EST MON NOV 24 2014 NOTE: "FAIR" INDICATES FEW OR NO CLOUDS BELOW 12,000 FEET WITH NO SIGNIFICANT WEATHER AND/OR OBSTRUCTIONS TO VISIBILITY NCZ015>017-031-032-045>047-102-103-241900- NORTH COAST CITY SKY/WX TMP DP RH WIND PRES REMARKS EDENTON PTSUNNY 71 64 80 S9 29.81F ELIZABETH CITY PTSUNNY 76 65 68 S16G22 29.82F KITTY HAWK CLOUDY 72 67 83 S5 29.84S MANTEO PTSUNNY 65 62 90 S14 29.86F $$ NCZ045>047-081-094-103-104-241900- CENTRAL COAST CITY SKY/WX TMP DP RH WIND PRES REMARKS FRISCO CLOUDY 68 67 96 SW7 29.89F FOG SWANQUARTER N/A 63 N/A N/A S9G15 29.82F $$ NCZ095-097-098-100-101-241900- SOUTHERN COAST CITY SKY/WX TMP DP RH WIND PRES REMARKS BEAUFORT CLOUDY 68 67 96 SW10 29.88F FOG CEDAR ISLAND N/A 72 N/A N/A SW9G20 29.91S JACKSONVILLE CLOUDY 71 69 93 S8 29.85F PINEY ISLAND CLOUDY 72 68 87 SW14 29.87F FOG WILMINGTON CLOUDY 71 69 93 SW15G25 29.86R $$ NCZ011>013-027>030-043-044-078>080-089-090>093-098-241900- COASTAL PLAIN CITY SKY/WX TMP DP RH WIND PRES REMARKS AHOSKIE PTSUNNY 71 62 73 S3 29.79F CLINTON CLOUDY 70 68 93 SW6 29.84R ELIZABETHTOWN LGT RAIN 70 68 94 S10 29.84R GOLDSBORO PTSUNNY 72 72 100 S9 29.80F GREENVILLE CLOUDY 72 66 83 S12 29.85S HAVELOCK CLOUDY 71 68 90 S8 29.87F FOG KENANSVILLE CLOUDY 69 67 94 S3 29.84F KINSTON CLOUDY 72 66 83 S9 29.83F NEW BERN CLOUDY 72 68 87 S7 29.85F RICHLANDS CLOUDY 70 66 88 S7 29.84F ROCKY MOUNT CLOUDY 72 63 73 S12 29.80F WASHINGTON MOSUNNY 70 66 85 S12 29.83F WHITEVILLE LGT RAIN 69 68 95 SW5 29.84S $$ AMZ130-135-150-152-154-156-158-170-250-252-270-ANZ085-086-088-633-658-670-241900- MARINE OBSERVATIONS STATION/POSITION TIME TEMP WIND PRES WAVE SWELL AIR SEA DIR/SP/G HT/PER HT/PER (UTC) (F) (DEG/KT/KT) (MB) (FT/S) (FT/S) CHESAPEAKE LIGHT 1700 62 190/ 24/ 24 1009.3 64 E VA BEACH 1800 67 63 210/ 16/ 17 1010.5 10/10 8/10 DUCK 1800 69 57 200/ 14/ 19 1009.4 2 E DUCK 1800 58 N/A 5/10 2/11 10 NE DUCK 1800 59 N/A 7/10 3/11 OREGON INLET 1800 59 55 180/ 10/ 12 1011.4 13E OREGON INLT 1800 63 N/A 7/10 2/11 HATTERAS CG 1800 68 61 220/ 7/ 12 1012.8 DIAMOND BUOY 1800 76 210/ 16/ 19 1012.5 9/10 7/10 17 S OCRACOKE NOT AVBL CAPE LOOKOUT 1700 69 230/ 11/ 14 1012.6 BEAUFORT LAB 1800 67 57 210/ 7/ 11 1010.7 30 SE NEW RIVER 1800 71 69 220/ 14/ 16 1011.9 8/10 7/10 5 SE WRIGHTSVLE 1700 62 60 220/ 12/ 16 1011.7 225 S CAPE HAT 1713 75 73 190/ 16/ 17 1017.5 8/ 9 5/ 9 41 SE CHARLESTON 1800 76 75 210/ 17/ 23 1011.3 10/ 9 7/ 9 $$

USA.gov is the U.S. government's official web portal to all federal, state and local government web resources and services.